START_TIME,STEP,MOV.,M34,t_acc.,L5,t_acc.,L18,t_acc.,L14,t_acc.
1979-03-04 09:00:38.200 ,3,1,55.,12.0,52.,12.0,0.,12.0,0.,12.0
1979-03-04 09:00:50.200 ,3,1,55.,12.0,61.,12.0,0.,12.0,0.,12.0
1979-03-04 09:01:02.200 ,2,1,47.,12.0,44.,12.0,0.,12.0,0.,12.0
1979-03-04 09:01:14.200 ,2,1,27.,12.0,50.,12.0,0.,12.0,0.,12.0
1979-03-04 09:01:26.200 ,1,1,37.,12.0,40.,12.0,0.,12.0,0.,12.0
1979-03-04 09:01:38.200 ,1,1,41.,12.0,35.,12.0,0.,12.0,1.,12.0
1979-03-04 09:01:50.200 ,0,1,44.,12.0,46.,12.0,0.,12.0,0.,12.0
1979-03-04 09:02:02.200 ,0,1,60.,12.0,52.,12.0,0.,12.0,0.,12.0
1979-03-04 09:02:14.200 ,0,1,53.,12.0,51.,12.0,0.,12.0,0.,12.0
1979-03-04 09:02:26.200 ,0,1,34.,12.0,60.,12.0,0.,12.0,0.,12.0
1979-03-04 09:02:38.200 ,1,1,62.,12.0,54.,12.0,0.,12.0,0.,12.0
1979-03-04 09:02:50.200 ,1,1,51.,12.0,44.,12.0,0.,12.0,0.,12.0
1979-03-04 09:03:02.200 ,2,1,43.,12.0,37.,12.0,0.,12.0,0.,12.0
1979-03-04 09:03:14.200 ,2,1,26.,12.0,49.,12.0,0.,12.0,0.,12.0
1979-03-04 09:03:26.200 ,3,1,36.,12.0,40.,12.0,0.,12.0,0.,12.0
1979-03-04 09:03:38.200 ,3,1,36.,12.0,48.,12.0,0.,12.0,0.,12.0
1979-03-04 09:03:50.200 ,4,1,42.,12.0,50.,12.0,0.,12.0,0.,12.0
1979-03-04 09:04:02.200 ,4,1,57.,12.0,60.,12.0,0.,12.0,0.,12.0
1979-03-04 09:04:14.200 ,5,1,72.,12.0,86.,12.0,0.,12.0,0.,12.0
1979-03-04 09:04:26.200 ,5,1,100.,12.0,100.,12.0,0.,12.0,0.,12.0
1979-03-04 09:04:38.200 ,6,1,98.,12.0,90.,12.0,0.,12.0,0.,12.0
1979-03-04 09:04:50.200 ,6,1,112.,12.0,92.,12.0,0.,12.0,0.,12.0
1979-03-04 09:05:02.200 ,7,1,100.,12.0,92.,12.0,0.,12.0,0.,12.0
1979-03-04 09:05:14.200 ,7,1,41.,12.0,36.,12.0,0.,12.0,0.,12.0
1979-03-04 09:05:26.200 ,7,1,0.,12.0,4.,12.0,0.,12.0,0.,12.0
1979-03-04 09:05:38.200 ,7,1,0.,12.0,3.,12.0,0.,12.0,0.,12.0
1979-03-04 09:05:50.200 ,6,1,0.,12.0,6.,12.0,0.,12.0,0.,12.0
1979-03-04 09:06:02.200 ,6,1,76.,12.0,66.,12.0,0.,12.0,0.,12.0
1979-03-04 09:06:14.200 ,5,1,118.,12.0,102.,12.0,0.,12.0,0.,12.0
1979-03-04 09:06:26.200 ,5,1,84.,12.0,92.,12.0,0.,12.0,1.,12.0
1979-03-04 09:06:38.200 ,4,1,98.,12.0,84.,12.0,0.,12.0,0.,12.0
1979-03-04 09:06:50.200 ,4,1,84.,12.0,62.,12.0,0.,12.0,0.,12.0
1979-03-04 09:07:02.200 ,3,1,68.,12.0,56.,12.0,0.,12.0,0.,12.0
1979-03-04 09:07:14.200 ,3,1,59.,12.0,39.,12.0,0.,12.0,0.,12.0
1979-03-04 09:07:26.200 ,2,1,41.,12.0,36.,12.0,0.,12.0,0.,12.0
1979-03-04 09:07:38.200 ,2,1,40.,12.0,39.,12.0,0.,12.0,1.,12.0
1979-03-04 09:07:50.200 ,1,1,43.,12.0,52.,12.0,0.,12.0,1.,12.0
1979-03-04 09:08:02.200 ,1,1,46.,12.0,47.,12.0,0.,12.0,0.,12.0
1979-03-04 09:08:14.200 ,0,1,36.,12.0,52.,12.0,0.,12.0,0.,12.0
1979-03-04 09:08:26.200 ,0,1,47.,12.0,66.,12.0,0.,12.0,0.,12.0
1979-03-04 09:08:38.200 ,0,1,59.,12.0,50.,12.0,0.,12.0,0.,12.0
1979-03-04 09:08:50.200 ,0,1,47.,12.0,68.,12.0,0.,12.0,0.,12.0
1979-03-04 09:09:02.200 ,1,1,56.,12.0,59.,12.0,0.,12.0,0.,12.0
1979-03-04 09:09:14.200 ,1,1,44.,12.0,54.,12.0,0.,12.0,0.,12.0
1979-03-04 09:09:26.200 ,2,1,37.,12.0,46.,12.0,0.,12.0,1.,12.0
1979-03-04 09:09:38.200 ,2,1,42.,12.0,44.,12.0,0.,12.0,0.,12.0
1979-03-04 09:09:50.200 ,3,1,41.,12.0,53.,12.0,0.,12.0,1.,12.0
1979-03-04 09:10:02.200 ,3,1,50.,12.0,53.,12.0,0.,12.0,0.,12.0
1979-03-04 09:10:14.200 ,4,1,49.,12.0,70.,12.0,0.,12.0,0.,12.0
1979-03-04 09:10:26.200 ,4,1,70.,12.0,64.,12.0,0.,12.0,0.,12.0
1979-03-04 09:10:38.200 ,5,1,88.,12.0,68.,12.0,0.,12.0,1.,12.0
1979-03-04 09:10:50.200 ,5,1,78.,12.0,80.,12.0,0.,12.0,0.,12.0
1979-03-04 09:11:02.200 ,6,1,106.,12.0,90.,12.0,0.,12.0,0.,12.0
1979-03-04 09:11:14.200 ,6,1,116.,12.0,80.,12.0,0.,12.0,1.,12.0
1979-03-04 09:11:26.200 ,7,1,96.,12.0,82.,12.0,0.,12.0,0.,12.0
1979-03-04 09:11:38.200 ,7,1,33.,12.0,29.,12.0,0.,12.0,0.,12.0
1979-03-04 09:11:50.200 ,7,1,0.,12.0,11.,12.0,0.,12.0,0.,12.0
1979-03-04 09:12:02.200 ,7,1,0.,12.0,7.,12.0,0.,12.0,0.,12.0
1979-03-04 09:12:14.200 ,6,1,0.,12.0,9.,12.0,0.,12.0,0.,12.0
1979-03-04 09:12:26.200 ,6,1,61.,12.0,82.,12.0,0.,12.0,0.,12.0
1979-03-04 09:12:38.200 ,5,1,124.,12.0,88.,12.0,0.,12.0,0.,12.0
1979-03-04 09:12:50.200 ,5,1,106.,12.0,90.,12.0,0.,12.0,0.,12.0
1979-03-04 09:13:02.200 ,4,1,100.,12.0,106.,12.0,0.,12.0,0.,12.0
1979-03-04 09:13:14.200 ,4,1,80.,12.0,66.,12.0,0.,12.0,0.,12.0
1979-03-04 09:13:26.200 ,3,1,76.,12.0,61.,12.0,0.,12.0,0.,12.0
1979-03-04 09:13:38.200 ,3,1,57.,12.0,72.,12.0,0.,12.0,0.,12.0
1979-03-04 09:13:50.200 ,2,1,54.,12.0,59.,12.0,0.,12.0,0.,12.0
1979-03-04 09:14:02.200 ,2,1,47.,12.0,58.,12.0,0.,12.0,0.,12.0
1979-03-04 09:14:14.200 ,1,1,32.,12.0,54.,12.0,0.,12.0,0.,12.0
1979-03-04 09:14:26.200 ,1,1,41.,12.0,44.,12.0,0.,12.0,0.,12.0
1979-03-04 09:14:38.200 ,0,1,35.,12.0,49.,12.0,0.,12.0,0.,12.0
1979-03-04 09:14:50.200 ,0,1,45.,12.0,49.,12.0,0.,12.0,0.,12.0
1979-03-04 09:15:02.200 ,0,1,51.,12.0,52.,12.0,0.,12.0,0.,12.0
1979-03-04 09:15:14.200 ,0,1,50.,12.0,58.,12.0,0.,12.0,0.,12.0
1979-03-04 09:15:26.200 ,1,1,54.,12.0,52.,12.0,0.,12.0,0.,12.0
1979-03-04 09:15:38.200 ,1,1,44.,12.0,52.,12.0,0.,12.0,0.,12.0
1979-03-04 09:15:50.200 ,2,1,37.,12.0,40.,12.0,0.,12.0,0.,12.0
1979-03-04 09:16:02.200 ,2,1,37.,12.0,44.,12.0,0.,12.0,0.,12.0
1979-03-04 09:16:14.200 ,3,1,32.,12.0,43.,12.0,0.,12.0,0.,12.0
1979-03-04 09:16:26.200 ,3,1,40.,12.0,54.,12.0,0.,12.0,0.,12.0
1979-03-04 09:16:38.200 ,4,1,49.,12.0,47.,12.0,0.,12.0,0.,12.0
1979-03-04 09:16:50.200 ,4,1,64.,12.0,66.,12.0,0.,12.0,0.,12.0
1979-03-04 09:17:02.200 ,5,1,64.,12.0,68.,12.0,0.,12.0,1.,12.0
1979-03-04 09:17:14.200 ,5,1,106.,12.0,92.,12.0,0.,12.0,0.,12.0
1979-03-04 09:17:26.200 ,6,1,108.,12.0,86.,12.0,0.,12.0,0.,12.0
1979-03-04 09:17:38.200 ,6,1,110.,12.0,92.,12.0,0.,12.0,0.,12.0
1979-03-04 09:17:50.200 ,7,1,116.,12.0,104.,12.0,0.,12.0,0.,12.0
1979-03-04 09:18:02.200 ,7,1,36.,12.0,26.,12.0,0.,12.0,0.,12.0
1979-03-04 09:18:14.200 ,7,1,0.,12.0,5.,12.0,0.,12.0,1.,12.0
1979-03-04 09:18:26.200 ,7,1,0.,12.0,6.,12.0,0.,12.0,0.,12.0
1979-03-04 09:18:38.200 ,6,1,0.,12.0,5.,12.0,0.,12.0,0.,12.0
1979-03-04 09:18:50.200 ,6,1,59.,12.0,72.,12.0,0.,12.0,0.,12.0
1979-03-04 09:19:02.200 ,5,1,90.,12.0,94.,12.0,0.,12.0,0.,12.0
1979-03-04 09:19:14.200 ,5,1,94.,12.0,86.,12.0,0.,12.0,0.,12.0
1979-03-04 09:19:26.200 ,4,1,94.,12.0,96.,12.0,0.,12.0,0.,12.0
1979-03-04 09:19:38.200 ,4,1,64.,12.0,72.,12.0,0.,12.0,0.,12.0
1979-03-04 09:19:50.200 ,3,1,70.,12.0,68.,12.0,0.,12.0,0.,12.0
1979-03-04 09:20:02.200 ,3,1,57.,12.0,36.,12.0,0.,12.0,0.,12.0
1979-03-04 09:20:14.200 ,2,1,31.,12.0,45.,12.0,0.,12.0,0.,12.0
1979-03-04 09:20:26.200 ,2,1,46.,12.0,47.,12.0,0.,12.0,0.,12.0
1979-03-04 09:20:38.200 ,1,1,38.,12.0,36.,12.0,0.,12.0,0.,12.0
1979-03-04 09:20:50.200 ,1,1,43.,12.0,45.,12.0,0.,12.0,0.,12.0
1979-03-04 09:21:02.200 ,0,1,41.,12.0,57.,12.0,0.,12.0,0.,12.0
1979-03-04 09:21:14.200 ,0,1,42.,12.0,48.,12.0,0.,12.0,0.,12.0
1979-03-04 09:21:26.200 ,0,1,47.,12.0,61.,12.0,0.,12.0,0.,12.0
1979-03-04 09:21:38.200 ,0,1,48.,12.0,46.,12.0,0.,12.0,0.,12.0
1979-03-04 09:21:50.200 ,1,1,58.,12.0,59.,12.0,0.,12.0,0.,12.0
1979-03-04 09:22:02.200 ,1,1,29.,12.0,56.,12.0,0.,12.0,0.,12.0
1979-03-04 09:22:14.200 ,2,1,33.,12.0,44.,12.0,0.,12.0,1.,12.0
1979-03-04 09:22:26.200 ,2,1,31.,12.0,51.,12.0,0.,12.0,0.,12.0
1979-03-04 09:22:38.200 ,3,1,40.,12.0,58.,12.0,0.,12.0,0.,12.0
1979-03-04 09:22:50.200 ,3,1,43.,12.0,50.,12.0,0.,12.0,0.,12.0
1979-03-04 09:23:02.200 ,4,1,42.,12.0,44.,12.0,0.,12.0,0.,12.0
1979-03-04 09:23:14.200 ,4,1,74.,12.0,55.,12.0,0.,12.0,0.,12.0
1979-03-04 09:23:26.200 ,5,1,68.,12.0,55.,12.0,0.,12.0,0.,12.0
1979-03-04 09:23:38.200 ,5,1,76.,12.0,70.,12.0,0.,12.0,0.,12.0
1979-03-04 09:23:50.200 ,6,1,88.,12.0,92.,12.0,0.,12.0,0.,12.0
1979-03-04 09:24:02.200 ,6,1,88.,12.0,66.,12.0,0.,12.0,0.,12.0
1979-03-04 09:24:14.200 ,7,1,108.,12.0,74.,12.0,0.,12.0,0.,12.0
1979-03-04 09:24:26.200 ,7,1,25.,12.0,25.,12.0,0.,12.0,1.,12.0
1979-03-04 09:24:38.200 ,7,1,0.,12.0,6.,12.0,0.,12.0,0.,12.0
1979-03-04 09:24:50.200 ,7,1,0.,12.0,5.,12.0,0.,12.0,1.,12.0
1979-03-04 09:25:02.200 ,6,1,0.,12.0,4.,12.0,0.,12.0,0.,12.0
1979-03-04 09:25:14.200 ,6,1,51.,12.0,54.,12.0,0.,12.0,0.,12.0
1979-03-04 09:25:26.200 ,5,1,84.,12.0,63.,12.0,0.,12.0,0.,12.0
1979-03-04 09:25:38.200 ,5,1,78.,12.0,98.,12.0,0.,12.0,0.,12.0
1979-03-04 09:25:50.200 ,4,1,96.,12.0,62.,12.0,0.,12.0,0.,12.0
1979-03-04 09:26:02.200 ,4,1,72.,12.0,50.,12.0,0.,12.0,1.,12.0
1979-03-04 09:26:14.200 ,3,1,76.,12.0,48.,12.0,0.,12.0,0.,12.0
1979-03-04 09:26:26.200 ,3,1,51.,12.0,49.,12.0,0.,12.0,0.,12.0
1979-03-04 09:26:38.200 ,2,1,,0,,0,,0,,0
1979-03-04 09:26:50.200 ,2,1,37.,12.0,47.,12.0,0.,12.0,0.,12.0
1979-03-04 09:27:02.200 ,1,1,34.,12.0,43.,12.0,0.,12.0,0.,12.0
1979-03-04 09:27:14.200 ,1,1,40.,12.0,36.,12.0,0.,12.0,0.,12.0
1979-03-04 09:27:26.200 ,0,1,34.,12.0,38.,12.0,0.,12.0,0.,12.0
1979-03-04 09:27:38.200 ,0,1,35.,12.0,44.,12.0,0.,12.0,0.,12.0
1979-03-04 09:27:50.200 ,0,1,38.,12.0,32.,12.0,0.,12.0,0.,12.0
1979-03-04 09:28:02.200 ,0,1,39.,12.0,48.,12.0,0.,12.0,0.,12.0
1979-03-04 09:28:14.200 ,1,1,35.,12.0,36.,12.0,0.,12.0,0.,12.0
1979-03-04 09:28:26.200 ,1,1,35.,12.0,44.,12.0,0.,12.0,1.,12.0
1979-03-04 09:28:38.200 ,2,1,22.,12.0,37.,12.0,0.,12.0,0.,12.0
1979-03-04 09:28:50.200 ,2,1,51.,12.0,40.,12.0,0.,12.0,1.,12.0
1979-03-04 09:29:02.200 ,3,1,39.,12.0,47.,12.0,0.,12.0,4.,12.0
1979-03-04 09:29:14.200 ,3,1,32.,12.0,37.,12.0,0.,12.0,0.,12.0
1979-03-04 09:29:26.200 ,4,1,46.,12.0,46.,12.0,0.,12.0,0.,12.0
1979-03-04 09:29:38.200 ,4,1,46.,12.0,59.,12.0,0.,12.0,0.,12.0
1979-03-04 09:29:50.200 ,5,1,58.,12.0,45.,12.0,0.,12.0,0.,12.0
1979-03-04 09:30:02.200 ,5,1,86.,12.0,68.,12.0,0.,12.0,0.,12.0
1979-03-04 09:30:14.200 ,6,1,78.,12.0,74.,12.0,0.,12.0,0.,12.0
1979-03-04 09:30:26.200 ,6,1,76.,12.0,72.,12.0,0.,12.0,0.,12.0
1979-03-04 09:30:38.200 ,7,1,66.,12.0,64.,12.0,0.,12.0,0.,12.0
1979-03-04 09:30:50.200 ,7,1,21.,12.0,23.,12.0,0.,12.0,0.,12.0
1979-03-04 09:31:02.200 ,7,1,0.,12.0,7.,12.0,0.,12.0,0.,12.0
1979-03-04 09:31:14.200 ,7,1,0.,12.0,3.,12.0,0.,12.0,0.,12.0
1979-03-04 09:31:26.200 ,6,1,0.,12.0,10.,12.0,0.,12.0,0.,12.0
1979-03-04 09:31:38.200 ,6,1,55.,12.0,35.,12.0,0.,12.0,0.,12.0
1979-03-04 09:31:50.200 ,5,1,76.,12.0,50.,12.0,0.,12.0,0.,12.0
1979-03-04 09:32:02.200 ,5,1,80.,12.0,49.,12.0,0.,12.0,0.,12.0
1979-03-04 09:32:14.200 ,4,1,51.,12.0,64.,12.0,0.,12.0,0.,12.0
1979-03-04 09:32:26.200 ,4,1,61.,12.0,52.,12.0,0.,12.0,0.,12.0
1979-03-04 09:32:38.200 ,3,1,53.,12.0,46.,12.0,0.,12.0,0.,12.0
1979-03-04 09:32:50.200 ,3,1,33.,12.0,38.,12.0,0.,12.0,1.,12.0
1979-03-04 09:33:02.200 ,2,1,38.,12.0,50.,12.0,0.,12.0,0.,12.0
1979-03-04 09:33:14.200 ,2,1,36.,12.0,38.,12.0,0.,12.0,0.,12.0
1979-03-04 09:33:26.200 ,1,1,23.,12.0,26.,12.0,0.,12.0,0.,12.0
1979-03-04 09:33:38.200 ,1,1,23.,12.0,31.,12.0,0.,12.0,1.,12.0
1979-03-04 09:33:50.200 ,0,1,29.,12.0,35.,12.0,0.,12.0,0.,12.0
1979-03-04 09:34:02.200 ,0,1,37.,12.0,34.,12.0,0.,12.0,0.,12.0
1979-03-04 09:35:02.200 ,0,0,30.,12.0,37.,12.0,0.,12.0,0.,12.0
1979-03-04 09:35:14.200 ,0,0,30.,12.0,38.,12.0,0.,12.0,0.,12.0
1979-03-04 09:35:26.200 ,3,1,24.,12.0,25.,12.0,0.,12.0,0.,12.0
1979-03-04 09:35:38.200 ,3,1,22.,12.0,31.,12.0,0.,12.0,0.,12.0
1979-03-04 09:35:50.200 ,4,1,38.,12.0,40.,12.0,0.,12.0,0.,12.0
1979-03-04 09:36:02.200 ,4,1,43.,12.0,29.,12.0,0.,12.0,0.,12.0
1979-03-04 09:36:14.200 ,5,1,40.,12.0,47.,12.0,0.,12.0,0.,12.0
1979-03-04 09:36:26.200 ,5,1,68.,12.0,66.,12.0,0.,12.0,0.,12.0
1979-03-04 09:36:38.200 ,6,1,76.,12.0,45.,12.0,0.,12.0,0.,12.0
1979-03-04 09:36:50.200 ,6,1,64.,12.0,52.,12.0,0.,12.0,0.,12.0
1979-03-04 09:37:02.200 ,7,1,92.,12.0,64.,12.0,0.,12.0,0.,12.0
1979-03-04 09:37:14.200 ,7,1,25.,12.0,30.,12.0,0.,12.0,0.,12.0
1979-03-04 09:37:26.200 ,7,1,0.,12.0,5.,12.0,0.,12.0,0.,12.0
1979-03-04 09:37:38.200 ,7,1,0.,12.0,8.,12.0,0.,12.0,0.,12.0
1979-03-04 09:37:50.200 ,6,1,0.,12.0,4.,12.0,0.,12.0,0.,12.0
1979-03-04 09:38:02.200 ,6,1,54.,12.0,49.,12.0,0.,12.0,1.,12.0
1979-03-04 09:38:14.200 ,0,0,72.,12.0,76.,12.0,0.,12.0,0.,12.0
1979-03-04 09:38:26.200 ,0,0,80.,12.0,57.,12.0,0.,12.0,2.,12.0
1979-03-04 09:38:38.200 ,0,1,37.,12.0,46.,12.0,0.,12.0,0.,12.0
1979-03-04 09:38:50.200 ,0,1,26.,12.0,45.,12.0,0.,12.0,0.,12.0
1979-03-04 09:39:02.200 ,3,1,41.,12.0,33.,12.0,0.,12.0,0.,12.0
1979-03-04 09:39:14.200 ,3,1,26.,12.0,46.,12.0,0.,12.0,0.,12.0
1979-03-04 09:39:26.200 ,7,1,62.,12.0,64.,12.0,0.,12.0,0.,12.0
1979-03-04 09:39:38.200 ,7,1,49.,12.0,66.,12.0,0.,12.0,0.,12.0
1979-03-04 09:39:50.200 ,4,1,23.,12.0,17.,12.0,0.,12.0,0.,12.0
1979-03-04 09:40:02.200 ,4,1,63.,12.0,60.,12.0,0.,12.0,0.,12.0
1979-03-04 09:40:14.200 ,0,1,41.,12.0,50.,12.0,0.,12.0,0.,12.0
1979-03-04 09:40:26.200 ,0,1,31.,12.0,38.,12.0,0.,12.0,0.,12.0
1979-03-04 09:40:38.200 ,3,1,28.,12.0,38.,12.0,0.,12.0,0.,12.0
1979-03-04 09:40:50.200 ,3,1,43.,12.0,52.,12.0,0.,12.0,1.,12.0
1979-03-04 09:41:02.200 ,7,1,49.,12.0,51.,12.0,0.,12.0,0.,12.0
1979-03-04 09:41:14.200 ,7,1,46.,12.0,55.,12.0,0.,12.0,1.,12.0
1979-03-04 09:41:26.200 ,4,1,22.,12.0,16.,12.0,0.,12.0,0.,12.0
1979-03-04 09:41:38.200 ,4,1,74.,12.0,48.,12.0,0.,12.0,0.,12.0
1979-03-04 09:41:50.200 ,0,1,36.,12.0,38.,12.0,0.,12.0,0.,12.0
1979-03-04 09:42:02.200 ,0,1,19.,12.0,26.,12.0,0.,12.0,1.,12.0
1979-03-04 09:42:14.200 ,3,1,26.,12.0,26.,12.0,0.,12.0,0.,12.0
1979-03-04 09:42:26.200 ,3,1,39.,12.0,38.,12.0,0.,12.0,0.,12.0
1979-03-04 09:42:38.200 ,7,1,44.,12.0,30.,12.0,0.,12.0,0.,12.0
1979-03-04 09:42:50.200 ,7,1,48.,12.0,31.,12.0,0.,12.0,0.,12.0
1979-03-04 09:43:02.200 ,4,1,12.,12.0,18.,12.0,0.,12.0,0.,12.0
1979-03-04 09:43:14.200 ,4,1,68.,12.0,53.,12.0,0.,12.0,0.,12.0
1979-03-04 09:43:26.200 ,0,1,24.,12.0,26.,12.0,0.,12.0,0.,12.0
1979-03-04 09:43:38.200 ,0,1,21.,12.0,36.,12.0,0.,12.0,0.,12.0
1979-03-04 09:43:50.200 ,3,1,23.,12.0,19.,12.0,0.,12.0,0.,12.0
1979-03-04 09:44:02.200 ,3,1,41.,12.0,27.,12.0,0.,12.0,0.,12.0
1979-03-04 09:44:14.200 ,7,1,34.,12.0,36.,12.0,0.,12.0,1.,12.0
1979-03-04 09:44:26.200 ,7,1,34.,12.0,22.,12.0,0.,12.0,0.,12.0
1979-03-04 09:44:38.200 ,4,1,18.,12.0,23.,12.0,0.,12.0,0.,12.0
1979-03-04 09:44:50.200 ,4,1,49.,12.0,35.,12.0,0.,12.0,0.,12.0
1979-03-04 09:45:02.200 ,0,1,33.,12.0,35.,12.0,0.,12.0,0.,12.0
1979-03-04 09:45:14.200 ,0,1,25.,12.0,32.,12.0,0.,12.0,0.,12.0
1979-03-04 09:45:26.200 ,3,1,21.,12.0,16.,12.0,0.,12.0,0.,12.0
1979-03-04 09:45:38.200 ,3,1,24.,12.0,19.,12.0,0.,12.0,1.,12.0
1979-03-04 09:45:50.200 ,7,1,38.,12.0,39.,12.0,0.,12.0,0.,12.0
1979-03-04 09:46:02.200 ,7,1,50.,12.0,29.,12.0,0.,12.0,0.,12.0
1979-03-04 09:46:14.200 ,4,1,12.,12.0,12.,12.0,0.,12.0,2.,12.0
1979-03-04 09:46:26.200 ,4,1,42.,12.0,26.,12.0,0.,12.0,0.,12.0
1979-03-04 09:46:38.200 ,0,1,24.,12.0,28.,12.0,0.,12.0,0.,12.0
1979-03-04 09:46:50.200 ,0,1,18.,12.0,21.,12.0,0.,12.0,0.,12.0
1979-03-04 09:47:02.200 ,3,1,30.,12.0,26.,12.0,0.,12.0,2.,12.0
1979-03-04 09:47:14.200 ,3,1,17.,12.0,26.,12.0,0.,12.0,0.,12.0
1979-03-04 09:47:26.200 ,7,1,31.,12.0,20.,12.0,0.,12.0,0.,12.0
1979-03-04 09:47:38.200 ,7,1,41.,12.0,28.,12.0,0.,12.0,1.,12.0
1979-03-04 09:47:50.200 ,4,1,19.,12.0,27.,12.0,0.,12.0,0.,12.0
1979-03-04 09:48:02.200 ,4,1,53.,12.0,36.,12.0,0.,12.0,0.,12.0
1979-03-04 09:48:14.200 ,0,1,23.,12.0,23.,12.0,0.,12.0,0.,12.0
1979-03-04 09:48:26.200 ,0,1,21.,12.0,26.,12.0,0.,12.0,0.,12.0
1979-03-04 09:48:38.200 ,3,1,24.,12.0,20.,12.0,0.,12.0,0.,12.0
1979-03-04 09:48:50.200 ,3,1,30.,12.0,26.,12.0,0.,12.0,0.,12.0
1979-03-04 09:49:02.200 ,7,1,34.,12.0,28.,12.0,0.,12.0,0.,12.0
1979-03-04 09:49:14.200 ,7,1,44.,12.0,40.,12.0,0.,12.0,0.,12.0
1979-03-04 09:49:26.200 ,4,1,16.,12.0,19.,12.0,0.,12.0,0.,12.0
1979-03-04 09:49:38.200 ,4,1,49.,12.0,37.,12.0,0.,12.0,0.,12.0
1979-03-04 09:49:50.200 ,0,1,26.,12.0,21.,12.0,0.,12.0,0.,12.0
1979-03-04 09:50:02.200 ,0,1,25.,12.0,27.,12.0,0.,12.0,1.,12.0
1979-03-04 09:50:14.200 ,3,1,27.,12.0,39.,12.0,0.,12.0,1.,12.0
1979-03-04 09:50:26.200 ,3,1,31.,12.0,31.,12.0,0.,12.0,0.,12.0
1979-03-04 09:50:38.200 ,7,1,47.,12.0,46.,12.0,0.,12.0,0.,12.0
1979-03-04 09:50:50.200 ,7,1,46.,12.0,40.,12.0,0.,12.0,0.,12.0
1979-03-04 09:51:02.200 ,4,1,16.,12.0,26.,12.0,0.,12.0,1.,12.0
1979-03-04 09:51:14.200 ,4,1,55.,12.0,64.,12.0,0.,12.0,0.,12.0
1979-03-04 09:51:26.200 ,0,1,34.,12.0,44.,12.0,0.,12.0,2.,12.0
1979-03-04 09:51:38.200 ,0,1,24.,12.0,33.,12.0,0.,12.0,0.,12.0
1979-03-04 09:51:50.200 ,3,1,35.,12.0,34.,12.0,0.,12.0,0.,12.0
1979-03-04 09:52:02.200 ,3,1,21.,12.0,19.,12.0,0.,12.0,0.,12.0
1979-03-04 09:52:14.200 ,7,1,46.,12.0,45.,12.0,0.,12.0,0.,12.0
1979-03-04 09:52:26.200 ,7,1,39.,12.0,35.,12.0,0.,12.0,0.,12.0
1979-03-04 09:52:38.200 ,4,1,17.,12.0,14.,12.0,0.,12.0,0.,12.0
1979-03-04 09:52:50.200 ,4,1,49.,12.0,46.,12.0,0.,12.0,0.,12.0
1979-03-04 09:53:02.200 ,0,1,32.,12.0,21.,12.0,0.,12.0,0.,12.0
1979-03-04 09:53:14.200 ,0,1,22.,12.0,26.,12.0,0.,12.0,0.,12.0
1979-03-04 09:53:26.200 ,3,1,25.,12.0,28.,12.0,0.,12.0,0.,12.0
1979-03-04 09:53:38.200 ,3,1,21.,12.0,25.,12.0,0.,12.0,0.,12.0
1979-03-04 09:53:50.200 ,7,1,32.,12.0,35.,12.0,0.,12.0,0.,12.0
1979-03-04 09:54:02.200 ,7,1,42.,12.0,36.,12.0,0.,12.0,2.,12.0
1979-03-04 09:54:14.200 ,4,1,19.,12.0,12.,12.0,0.,12.0,0.,12.0
1979-03-04 09:54:26.200 ,4,1,54.,12.0,41.,12.0,0.,12.0,0.,12.0
1979-03-04 09:54:38.200 ,0,1,24.,12.0,28.,12.0,0.,12.0,0.,12.0
1979-03-04 09:54:50.200 ,0,1,21.,12.0,33.,12.0,0.,12.0,0.,12.0
1979-03-04 09:55:02.200 ,3,1,24.,12.0,24.,12.0,0.,12.0,0.,12.0
1979-03-04 09:55:14.200 ,3,1,22.,12.0,26.,12.0,0.,12.0,0.,12.0
1979-03-04 09:55:26.200 ,7,1,43.,12.0,45.,12.0,0.,12.0,0.,12.0
1979-03-04 09:55:38.200 ,7,1,44.,12.0,33.,12.0,0.,12.0,0.,12.0
1979-03-04 09:55:50.200 ,4,1,11.,12.0,13.,12.0,0.,12.0,0.,12.0
1979-03-04 09:56:02.200 ,4,1,38.,12.0,24.,12.0,0.,12.0,2.,12.0
1979-03-04 09:56:14.200 ,0,1,31.,12.0,35.,12.0,0.,12.0,0.,12.0
1979-03-04 09:56:26.200 ,0,1,13.,12.0,26.,12.0,0.,12.0,0.,12.0
1979-03-04 09:56:38.200 ,3,1,22.,12.0,23.,12.0,0.,12.0,0.,12.0
1979-03-04 09:56:50.200 ,3,1,13.,12.0,23.,12.0,0.,12.0,0.,12.0
1979-03-04 09:57:02.200 ,7,1,32.,12.0,43.,12.0,0.,12.0,0.,12.0
1979-03-04 09:57:14.200 ,7,1,36.,12.0,32.,12.0,0.,12.0,2.,12.0
1979-03-04 09:57:26.200 ,4,1,14.,12.0,17.,12.0,0.,12.0,1.,12.0
1979-03-04 09:57:38.200 ,4,1,37.,12.0,32.,12.0,0.,12.0,0.,12.0
1979-03-04 09:57:50.200 ,0,1,24.,12.0,21.,12.0,0.,12.0,0.,12.0
1979-03-04 09:58:02.200 ,0,1,17.,12.0,19.,12.0,0.,12.0,0.,12.0
1979-03-04 09:58:14.200 ,3,1,23.,12.0,11.,12.0,0.,12.0,0.,12.0
1979-03-04 09:58:26.200 ,3,1,19.,12.0,26.,12.0,0.,12.0,0.,12.0
1979-03-04 09:58:38.200 ,7,1,33.,12.0,23.,12.0,0.,12.0,1.,12.0
1979-03-04 09:58:50.200 ,7,1,39.,12.0,31.,12.0,0.,12.0,0.,12.0
1979-03-04 09:59:02.200 ,4,1,16.,12.0,16.,12.0,0.,12.0,0.,12.0
1979-03-04 09:59:14.200 ,4,1,41.,12.0,30.,12.0,0.,12.0,0.,12.0
1979-03-04 09:59:26.200 ,0,1,14.,12.0,26.,12.0,0.,12.0,0.,12.0
1979-03-04 09:59:38.200 ,0,1,18.,12.0,20.,12.0,0.,12.0,0.,12.0
1979-03-04 09:59:50.200 ,3,1,19.,12.0,20.,12.0,0.,12.0,1.,12.0
1979-03-04 10:00:02.200 ,3,1,21.,12.0,24.,12.0,0.,12.0,1.,12.0
1979-03-04 10:00:14.200 ,7,1,39.,12.0,17.,12.0,0.,12.0,0.,12.0
1979-03-04 10:00:26.200 ,7,1,34.,12.0,30.,12.0,0.,12.0,0.,12.0
1979-03-04 10:00:38.200 ,4,1,13.,12.0,13.,12.0,0.,12.0,0.,12.0
1979-03-04 10:00:50.200 ,4,1,33.,12.0,36.,12.0,0.,12.0,0.,12.0
1979-03-04 10:01:02.200 ,0,1,21.,12.0,14.,12.0,0.,12.0,0.,12.0
1979-03-04 10:01:14.200 ,0,1,17.,12.0,17.,12.0,0.,12.0,1.,12.0
1979-03-04 10:01:26.200 ,3,1,14.,12.0,15.,12.0,0.,12.0,0.,12.0
1979-03-04 10:01:38.200 ,3,1,15.,12.0,18.,12.0,0.,12.0,1.,12.0
1979-03-04 10:01:50.200 ,7,1,25.,12.0,26.,12.0,0.,12.0,1.,12.0
1979-03-04 10:02:02.200 ,7,1,34.,12.0,20.,12.0,0.,12.0,0.,12.0
1979-03-04 10:02:14.200 ,4,1,17.,12.0,12.,12.0,0.,12.0,1.,12.0
1979-03-04 10:02:26.200 ,4,1,28.,12.0,25.,12.0,0.,12.0,0.,12.0
1979-03-04 10:02:38.200 ,0,1,16.,12.0,23.,12.0,0.,12.0,0.,12.0
1979-03-04 10:02:50.200 ,0,1,27.,12.0,12.,12.0,0.,12.0,1.,12.0
1979-03-04 10:03:02.200 ,3,1,17.,12.0,19.,12.0,0.,12.0,2.,12.0
1979-03-04 10:03:14.200 ,3,1,19.,12.0,15.,12.0,0.,12.0,1.,12.0
1979-03-04 10:03:26.200 ,7,1,31.,12.0,25.,12.0,0.,12.0,0.,12.0
1979-03-04 10:03:38.200 ,7,1,28.,12.0,27.,12.0,0.,12.0,1.,12.0
1979-03-04 10:03:50.200 ,4,1,17.,12.0,11.,12.0,0.,12.0,1.,12.0
1979-03-04 10:04:02.200 ,4,1,47.,12.0,31.,12.0,0.,12.0,1.,12.0
1979-03-04 10:04:14.200 ,0,1,22.,12.0,21.,12.0,0.,12.0,1.,12.0
1979-03-04 10:04:26.200 ,0,1,13.,12.0,23.,12.0,0.,12.0,0.,12.0
1979-03-04 10:04:38.200 ,3,1,24.,12.0,22.,12.0,0.,12.0,0.,12.0
1979-03-04 10:04:50.200 ,3,1,24.,12.0,16.,12.0,0.,12.0,0.,12.0
1979-03-04 10:05:02.200 ,7,1,30.,12.0,18.,12.0,0.,12.0,0.,12.0
1979-03-04 10:05:14.200 ,7,1,42.,12.0,27.,12.0,0.,12.0,0.,12.0
1979-03-04 10:05:26.200 ,4,1,12.,12.0,16.,12.0,0.,12.0,0.,12.0
1979-03-04 10:05:38.200 ,4,1,41.,12.0,37.,12.0,0.,12.0,0.,12.0
1979-03-04 10:05:50.200 ,0,1,26.,12.0,27.,12.0,0.,12.0,0.,12.0
1979-03-04 10:06:02.200 ,0,1,18.,12.0,28.,12.0,0.,12.0,0.,12.0
1979-03-04 10:06:14.200 ,3,1,10.,12.0,22.,12.0,0.,12.0,0.,12.0
1979-03-04 10:06:26.200 ,3,1,10.,12.0,13.,12.0,0.,12.0,0.,12.0
1979-03-04 10:06:38.200 ,7,1,34.,12.0,30.,12.0,0.,12.0,0.,12.0
1979-03-04 10:06:50.200 ,7,1,27.,12.0,23.,12.0,0.,12.0,0.,12.0
1979-03-04 10:07:02.200 ,4,1,14.,12.0,18.,12.0,0.,12.0,0.,12.0
1979-03-04 10:07:14.200 ,4,1,37.,12.0,39.,12.0,0.,12.0,0.,12.0
1979-03-04 10:07:26.200 ,0,1,23.,12.0,25.,12.0,0.,12.0,0.,12.0
1979-03-04 10:07:38.200 ,0,1,15.,12.0,24.,12.0,0.,12.0,0.,12.0
1979-03-04 10:07:50.200 ,3,1,13.,12.0,27.,12.0,0.,12.0,1.,12.0
1979-03-04 10:08:02.200 ,3,1,19.,12.0,21.,12.0,0.,12.0,0.,12.0
1979-03-04 10:08:14.200 ,7,1,26.,12.0,17.,12.0,0.,12.0,0.,12.0
1979-03-04 10:08:26.200 ,7,1,18.,12.0,23.,12.0,0.,12.0,0.,12.0
1979-03-04 10:08:38.200 ,4,1,9.,12.0,11.,12.0,0.,12.0,1.,12.0
1979-03-04 10:08:50.200 ,4,1,34.,12.0,34.,12.0,0.,12.0,0.,12.0
1979-03-04 10:09:02.200 ,0,1,21.,12.0,20.,12.0,0.,12.0,0.,12.0
1979-03-04 10:09:14.200 ,0,1,20.,12.0,21.,12.0,0.,12.0,0.,12.0
1979-03-04 10:09:26.200 ,3,1,21.,12.0,18.,12.0,0.,12.0,0.,12.0
1979-03-04 10:09:38.200 ,3,1,23.,12.0,15.,12.0,0.,12.0,0.,12.0
1979-03-04 10:09:50.200 ,7,1,17.,12.0,23.,12.0,0.,12.0,1.,12.0
1979-03-04 10:10:02.200 ,7,1,21.,12.0,24.,12.0,0.,12.0,0.,12.0
1979-03-04 10:10:14.200 ,4,1,11.,12.0,19.,12.0,0.,12.0,1.,12.0
1979-03-04 10:10:26.200 ,4,1,33.,12.0,25.,12.0,0.,12.0,0.,12.0
1979-03-04 10:10:38.200 ,0,1,28.,12.0,21.,12.0,0.,12.0,0.,12.0
1979-03-04 10:10:50.200 ,0,1,18.,12.0,16.,12.0,0.,12.0,1.,12.0
1979-03-04 10:11:02.200 ,3,1,25.,12.0,20.,12.0,0.,12.0,0.,12.0
1979-03-04 10:11:14.200 ,3,1,14.,12.0,16.,12.0,0.,12.0,0.,12.0
1979-03-04 10:11:26.200 ,7,1,24.,12.0,24.,12.0,0.,12.0,0.,12.0
1979-03-04 10:11:38.200 ,7,1,25.,12.0,16.,12.0,0.,12.0,0.,12.0
1979-03-04 10:11:50.200 ,4,1,8.,12.0,8.,12.0,0.,12.0,1.,12.0
1979-03-04 10:12:02.200 ,4,1,31.,12.0,17.,12.0,0.,12.0,0.,12.0
1979-03-04 10:12:14.200 ,0,1,23.,12.0,20.,12.0,0.,12.0,0.,12.0
1979-03-04 10:12:26.200 ,0,1,13.,12.0,17.,12.0,0.,12.0,0.,12.0
1979-03-04 10:12:38.200 ,3,1,22.,12.0,17.,12.0,0.,12.0,0.,12.0
1979-03-04 10:12:50.200 ,3,1,13.,12.0,21.,12.0,0.,12.0,0.,12.0
1979-03-04 10:13:02.200 ,7,1,20.,12.0,19.,12.0,0.,12.0,0.,12.0
1979-03-04 10:13:14.200 ,7,1,21.,12.0,22.,12.0,0.,12.0,0.,12.0
1979-03-04 10:13:26.200 ,4,1,10.,12.0,14.,12.0,0.,12.0,1.,12.0
1979-03-04 10:13:38.200 ,4,1,25.,12.0,20.,12.0,0.,12.0,0.,12.0
1979-03-04 10:13:50.200 ,0,1,17.,12.0,20.,12.0,0.,12.0,1.,12.0
1979-03-04 10:14:02.200 ,0,1,12.,12.0,13.,12.0,0.,12.0,0.,12.0
1979-03-04 10:14:14.200 ,3,1,11.,12.0,13.,12.0,0.,12.0,1.,12.0
1979-03-04 10:14:26.200 ,3,1,19.,12.0,13.,12.0,0.,12.0,1.,12.0
1979-03-04 10:14:38.200 ,7,1,26.,12.0,17.,12.0,0.,12.0,1.,12.0
1979-03-04 10:14:50.200 ,7,1,16.,12.0,19.,12.0,0.,12.0,0.,12.0
1979-03-04 10:15:02.200 ,4,1,5.,12.0,5.,12.0,0.,12.0,0.,12.0
1979-03-04 10:15:14.200 ,4,1,26.,12.0,20.,12.0,0.,12.0,0.,12.0
1979-03-04 10:15:26.200 ,0,1,17.,12.0,15.,12.0,0.,12.0,0.,12.0
1979-03-04 10:15:38.200 ,0,1,10.,12.0,10.,12.0,0.,12.0,0.,12.0
1979-03-04 10:15:50.200 ,3,1,17.,12.0,8.,12.0,0.,12.0,0.,12.0
1979-03-04 10:16:02.200 ,3,1,19.,12.0,10.,12.0,0.,12.0,0.,12.0